FW4175 Weather Reports


time (UTC)temp
C
wind
direction
speed
KPH
gust
KPH
rain 1hr
cm
rain 24hr
cm
rain mn
cm
humidity
%
barometer
mb
20260504045738 14 160 3.2 14.5 0.00 0.00 0.00 66 1007.1
20260504045233 14 191 4.8 12.9 0.00 0.00 0.00 66 1006.9
20260504044731 14 183 4.8 12.9 0.00 0.00 0.00 66 1007.1
20260504044228 14 179 6.4 11.3 0.00 0.00 0.00 66 1006.9
20260504043725 15 187 8.0 27.4 0.00 0.00 0.00 66 1007.0
20260504043222 14 227 3.2 17.7 0.00 0.00 0.00 67 1007.1
20260504042720 14 201 4.8 8.0 0.00 0.00 0.00 67 1007.0
20260504042216 14 203 1.6 11.3 0.00 0.00 0.00 66 1007.1
20260504041712 14 173 6.4 12.9 0.00 0.00 0.00 66 1007.0
20260504041208 14 148 3.2 12.9 0.00 0.00 0.00 66 1007.0
20260504040704 15 143 6.4 14.5 0.00 0.00 0.00 65 1007.0
20260504040202 15 153 4.8 11.3 0.00 0.00 0.00 65 1007.0
20260504035658 15 163 8.0 11.3 0.00 0.00 0.00 65 1007.1
20260504035156 15 169 6.4 11.3 0.00 0.00 0.00 65 1007.1
20260504034653 15 148 8.0 14.5 0.00 0.00 0.00 64 1007.3
20260504034150 15 151 6.4 14.5 0.00 0.00 0.00 64 1007.3
20260504033648 15 174 6.4 14.5 0.00 0.00 0.00 63 1007.2
20260504033145 15 159 8.0 17.7 0.00 0.00 0.00 63 1007.4
20260504032641 15 146 6.4 11.3 0.00 0.00 0.00 63 1007.2
20260504032138 15 173 8.0 14.5 0.00 0.00 0.00 62 1007.3
20260504031635 15 167 6.4 11.3 0.00 0.00 0.00 62 1007.4
20260504031132 15 167 12.9 12.9 0.00 0.00 0.00 62 1007.3
20260504030628 15 159 8.0 14.5 0.00 0.00 0.00 61 1007.4
20260504030125 15 173 4.8 14.5 0.00 0.00 0.00 61 1007.3
20260504025622 15 185 4.8 16.1 0.00 0.00 0.00 61 1007.2
20260504025119 15 157 9.7 17.7 0.00 0.00 0.00 61 1007.8
20260504024616 15 186 4.8 11.3 0.00 0.00 0.00 61 1007.6
20260504024113 15 165 6.4 20.9 0.00 0.00 0.00 61 1007.3
20260504023609 15 163 4.8 9.7 0.00 0.00 0.00 62 1007.4
20260504023105 15 148 1.6 8.0 0.00 0.00 0.00 62 1007.5
20260504022602 15 151 4.8 6.4 0.00 0.00 0.00 62 1007.3
20260504022058 15 140 4.8 9.7 0.00 0.00 0.00 61 1007.3
20260504021556 15 144 4.8 8.0 0.00 0.00 0.00 62 1007.3
20260504021052 15 152 3.2 4.8 0.00 0.00 0.00 62 1007.5
20260504020549 15 154 4.8 6.4 0.00 0.00 0.00 61 1007.2
20260504020045 15 135 3.2 4.8 0.00 0.00 0.00 61 1007.1
20260504015542 15 142 3.2 4.8 0.00 0.00 0.00 61 1007.1
20260504015038 15 130 3.2 4.8 0.00 0.00 0.00 62 1007.2
20260504014534 15 131 3.2 3.2 0.00 0.00 0.00 61 1007.2
20260504014032 15 134 1.6 4.8 0.00 0.00 0.00 60 1007.3
20260504013529 16 129 1.6 3.2 0.00 0.00 0.00 60 1007.3
20260504013026 16 130 3.2 3.2 0.00 0.00 0.00 58 1007.1
20260504012524 17 134 3.2 3.2 0.00 0.00 0.00 56 1007.0
20260504012022 17 172 0.0 4.8 0.00 0.00 0.00 56 1007.0
20260504011518 17 181 1.6 6.4 0.00 0.00 0.00 55 1006.9
20260504011014 17 156 6.4 11.3 0.00 0.00 0.00 54 1006.9
20260504010510 17 167 6.4 9.7 0.00 0.00 0.00 53 1006.7
20260504010006 18 193 4.8 8.0 0.00 0.00 0.00 52 1006.7
20260504005503 18 204 4.8 11.3 0.00 0.00 0.00 52 1006.7
20260504005000 18 195 4.8 9.7 0.00 0.00 0.00 51 1006.8
20260504004458 18 164 11.3 12.9 0.00 0.00 0.00 50 1006.7
20260504003955 18 184 9.7 14.5 0.00 0.00 0.00 50 1006.7
20260504003450 18 195 4.8 19.3 0.00 0.00 0.00 51 1006.7
20260504002948 18 183 8.0 16.1 0.00 0.00 0.00 49 1006.8
20260504002445 19 192 6.4 11.3 0.00 0.00 0.00 49 1006.8
20260504001942 19 175 14.5 16.1 0.00 0.00 0.00 48 1007.0
20260504001439 19 170 8.0 12.9 0.00 0.00 0.00 48 1006.7
20260504000936 19 219 17.7 19.3 0.00 0.00 0.00 47 1006.7
20260504000433 20 190 9.7 22.5 0.00 0.00 0.00 47 1006.9
20260503235930 20 215 11.3 24.1 0.00 0.00 0.00 47 1006.8
20260503235428 20 222 9.7 22.5 0.00 0.00 0.00 47 1007.0
20260503234925 20 212 17.7 24.1 0.00 0.00 0.00 48 1007.0
20260503234422 20 201 22.5 24.1 0.00 0.00 0.00 46 1006.9
20260503233920 20 187 14.5 24.1 0.00 0.00 0.00 46 1006.8
20260503233417 20 183 9.7 29.0 0.00 0.00 0.00 47 1006.9
20260503232913 20 207 17.7 22.5 0.00 0.00 0.00 46 1007.0
20260503232410 20 165 9.7 30.6 0.00 0.00 0.00 45 1006.8
20260503231908 20 168 8.0 24.1 0.00 0.00 0.00 45 1006.8
20260503231405 20 218 27.4 29.0 0.00 0.00 0.00 44 1007.2
20260503230901 20 221 11.3 33.8 0.00 0.00 0.00 44 1007.1
20260503230358 20 209 19.3 29.0 0.00 0.00 0.00 45 1007.2
20260503225856 20 191 22.5 35.4 0.00 0.00 0.00 45 1007.0
20260503225351 20 197 12.9 32.2 0.00 0.00 0.00 45 1007.1
20260503224848 20 201 11.3 30.6 0.00 0.00 0.00 45 1007.0
20260503224345 20 177 20.9 33.8 0.00 0.00 0.00 45 1007.3
20260503223843 20 206 17.7 27.4 0.00 0.00 0.00 46 1007.0
20260503223341 20 177 8.0 41.8 0.00 0.00 0.00 45 1007.1
20260503222836 20 204 19.3 38.6 0.00 0.00 0.00 45 1007.0
20260503222335 19 142 17.7 37.0 0.00 0.00 0.00 45 1007.1
20260503221832 19 181 14.5 27.4 0.00 0.00 0.00 46 1007.3
20260503221331 19 153 24.1 38.6 0.00 0.00 0.00 47 1007.3
20260503220826 19 187 20.9 41.8 0.00 0.00 0.00 45 1007.1
20260503220323 19 173 17.7 33.8 0.00 0.00 0.00 46 1007.5
20260503215820 19 172 11.3 35.4 0.00 0.00 0.00 46 1007.5
20260503215318 19 178 17.7 25.7 0.00 0.00 0.00 47 1007.6
20260503214815 19 185 29.0 41.8 0.00 0.00 0.00 45 1007.3
20260503214312 18 184 20.9 45.1 0.00 0.00 0.00 46 1007.6
20260503213810 18 164 32.2 46.7 0.00 0.00 0.00 46 1007.8
20260503213307 18 219 19.3 43.5 0.00 0.00 0.00 46 1007.5
20260503212804 18 179 27.4 48.3 0.00 0.00 0.00 46 1007.8
20260503212302 18 205 17.7 40.2 0.00 0.00 0.00 46 1008.1
20260503211759 18 190 11.3 38.6 0.00 0.00 0.00 45 1008.1
20260503211255 18 198 12.9 57.9 0.00 0.00 0.00 46 1008.1
20260503210755 18 210 33.8 48.3 0.00 0.00 0.00 47 1008.2
20260503210253 18 196 9.7 32.2 0.00 0.00 0.00 46 1008.2
20260503205748 18 173 20.9 37.0 0.00 0.00 0.00 46 1008.2
20260503205245 18 197 12.9 53.1 0.00 0.00 0.00 45 1008.5
20260503204741 18 205 27.4 37.0 0.00 0.00 0.00 46 1008.4
20260503204239 18 164 24.1 32.2 0.00 0.00 0.00 45 1008.5
20260503203736 18 178 12.9 38.6 0.00 0.00 0.00 47 1008.8
20260503203234 17 180 17.7 37.0 0.00 0.00 0.00 50 1008.8
20260503202731 17 197 20.9 54.7 0.00 0.00 0.00 51 1008.9
20260503202229 18 160 6.4 33.8 0.00 0.00 0.00 52 1009.1
20260503201726 17 146 25.7 37.0 0.00 0.00 0.00 53 1009.1
20260503201224 17 163 25.7 43.5 0.00 0.00 0.00 54 1009.0
20260503200720 16 137 24.1 38.6 0.00 0.00 0.00 54 1009.3
20260503200216 17 159 32.2 45.1 0.00 0.00 0.00 53 1009.4
20260503195713 17 147 35.4 43.5 0.00 0.00 0.00 55 1009.6
20260503195210 16 191 20.9 48.3 0.00 0.00 0.00 53 1009.9
20260503194707 16 180 20.9 53.1 0.00 0.00 0.00 52 1009.9
20260503194203 16 184 9.7 30.6 0.00 0.00 0.00 54 1009.8
20260503193700 16 140 16.1 48.3 0.00 0.00 0.00 54 1010.2
20260503193155 16 169 24.1 33.8 0.00 0.00 0.00 51 1010.4
20260503192651 16 161 20.9 51.5 0.00 0.00 0.00 52 1010.3
20260503192147 16 149 20.9 48.3 0.00 0.00 0.00 52 1010.2
20260503191644 16 148 17.7 46.7 0.00 0.00 0.00 50 1010.2
20260503191141 16 164 9.7 38.6 0.00 0.00 0.00 52 1010.0
20260503190638 16 147 24.1 45.1 0.00 0.00 0.00 51 1010.3
20260503190134 16 141 11.3 45.1 0.00 0.00 0.00 51 1010.1
20260503185631 16 160 32.2 43.5 0.00 0.00 0.00 50 1010.2
20260503185126 15 172 17.7 41.8 0.00 0.00 0.00 51 1010.1
20260503184621 15 134 24.1 46.7 0.00 0.00 0.00 52 1010.2
20260503184118 15 172 14.5 43.5 0.00 0.00 0.00 54 1010.4
20260503183615 15 139 35.4 51.5 0.00 0.00 0.00 53 1010.2
20260503183112 15 156 16.1 35.4 0.00 0.00 0.00 57 1010.4
20260503182611 15 165 20.9 40.2 0.00 0.00 0.00 55 1010.7
20260503182108 15 157 16.1 43.5 0.00 0.00 0.00 56 1010.7
20260503181605 14 177 37.0 53.1 0.00 0.00 0.00 54 1010.6
20260503181102 14 160 22.5 51.5 0.00 0.00 0.00 56 1010.6
20260503180559 14 144 45.1 53.1 0.00 0.00 0.00 55 1010.8
20260503180056 15 170 14.5 37.0 0.00 0.00 0.00 57 1010.9
20260503175553 14 159 14.5 38.6 0.00 0.00 0.00 59 1011.3
20260503175050 14 164 20.9 45.1 0.00 0.00 0.00 61 1011.2
20260503174547 13 167 12.9 48.3 0.00 0.00 0.00 60 1011.3
20260503174044 13 160 25.7 59.5 0.00 0.00 0.00 59 1011.5
20260503173539 14 183 37.0 48.3 0.00 0.00 0.00 61 1011.9
20260503173035 13 164 16.1 43.5 0.00 0.00 0.00 63 1011.8
20260503172533 13 165 33.8 57.9 0.00 0.00 0.00 64 1011.8
20260503172030 13 172 19.3 43.5 0.00 0.00 0.00 65 1012.4
20260503171526 12 157 17.7 33.8 0.00 0.00 0.00 66 1012.7
20260503171024 12 138 27.4 40.2 0.00 0.00 0.00 67 1012.7
20260503170520 12 143 29.0 54.7 0.00 0.00 0.00 68 1012.5
20260503150912 12 196 25.7 40.2 0.00 0.00 0.00 60 1014.1
20260503150409 12 201 25.7 48.3 0.00 0.00 0.00 60 1014.1
20260503131302 11 177 14.5 45.1 0.00 0.00 0.00 59 1014.7
20260503130800 10 202 12.9 38.6 0.00 0.00 0.00 61 1014.7
20260503130257 10 172 12.9 30.6 0.00 0.00 0.00 60 1014.9
20260503110650 9 150 12.9 24.1 0.00 0.00 0.00 57 1014.5
20260503110148 9 203 19.3 35.4 0.00 0.00 0.00 57 1014.5
20260503100114 9 166 8.0 25.7 0.00 0.00 0.00 55 1015.0
20260503081504 8 173 6.4 20.9 0.00 0.00 0.00 56 1015.5
20260503081001 8 170 8.0 16.1 0.00 0.00 0.00 57 1015.7
20260503080457 8 174 14.5 17.7 0.00 0.00 0.00 57 1015.6
20260503072934 7 167 9.7 12.9 0.00 0.00 0.00 59 1015.7
20260503072431 7 182 8.0 16.1 0.00 0.00 0.00 59 1015.5
20260503071928 7 175 16.1 17.7 0.00 0.00 0.00 59 1015.7
20260503071425 7 152 11.3 14.5 0.00 0.00 0.00 60 1015.9
20260503070921 7 160 4.8 12.9 0.00 0.00 0.00 61 1015.8
20260503070418 7 144 11.3 12.9 0.00 0.00 0.00 61 1015.9
20260503054832 7 147 6.4 11.3 0.00 0.00 0.00 59 1016.3
20260503054328 7 148 4.8 11.3 0.00 0.00 0.00 59 1016.7
20260503053826 7 154 8.0 14.5 0.00 0.00 0.00 58 1016.9
20260503053324 7 148 9.7 12.9 0.00 0.00 0.00 59 1016.8
20260503052820 7 165 6.4 12.9 0.00 0.00 0.00 59 1016.8
20260503052317 7 156 8.0 12.9 0.00 0.00 0.00 59 1016.6
20260503051813 7 189 4.8 11.3 0.00 0.00 0.00 60 1016.9
20260503051309 7 158 6.4 12.9 0.00 0.00 0.00 60 1016.7
20260503050806 7 153 4.8 11.3 0.00 0.00 0.00 60 1016.9
20260503050302 7 153 6.4 12.9 0.00 0.00 0.00 60 1016.8